Location: ActonStarParty
(42.4766°N, 71.4538°W)
Time: 16:15:42
(UTC-04:00)

ISS - Visible Passes

Search period start: 30 September 2016 00:00
Search period end: 10 October 2016 00:00
Orbit: 400 x 410 km, 51.6° (Epoch: 01 October)

Date Brightness Start Highest point End Pass type
(mag) Time Alt. Az. Time Alt. Az. Time Alt. Az.
30 Sep -2.3 18:59:10 10° SSW 19:02:03 30° SE 19:04:58 10° ENE visible
30 Sep -1.6 20:35:25 10° W 20:37:49 33° NW 20:37:49 33° NW visible
01 Oct -2.9 19:43:04 10° WSW 19:46:17 61° NNW 19:48:04 24° NE visible
02 Oct -3.4 18:50:56 10° SW 18:54:10 74° SE 18:57:25 10° ENE visible
02 Oct -1.3 20:28:13 10° WNW 20:30:53 24° NNW 20:30:53 24° NNW visible
03 Oct -1.8 19:35:39 10° W 19:38:37 32° NNW 19:40:54 15° NE visible
04 Oct -2.6 18:43:12 10° WSW 18:46:22 50° NNW 18:49:34 10° NE visible
04 Oct -1.0 20:21:05 10° NW 20:23:25 18° N 20:23:30 18° N visible
05 Oct -1.2 19:28:25 10° WNW 19:31:02 22° NNW 19:33:23 11° NE visible
06 Oct -0.9 20:13:45 10° NW 20:15:51 16° N 20:15:51 16° N visible
07 Oct -1.0 19:21:12 10° NW 19:23:27 17° N 19:25:39 10° NE visible
08 Oct -1.0 20:06:06 10° NW 20:08:04 17° N 20:08:04 17° N visible
09 Oct -1.0 19:13:44 10° NW 19:15:53 16° N 19:17:50 11° NE visible
09 Oct 0.0 20:50:16 10° NW 20:50:29 11° NW 20:50:29 11° NW visible
